Tacoma, WA

4:43 AM PDT on May 21, 2018 (GMT -0700)
McChord Air Force Base

Weather History for KTCM - June, 2013

Change the Weather History Date:

Sunday, June 2, 2013

  Actual Average Record
Temperature  
Mean Temperature 61 °F -  
Max Temperature 69 °F 65 °F 93 °F (1970)
Min Temperature 53 °F 46 °F 39 °F (1976)
Degree Days  
Heating Degree Days 4    
Growing Degree Days 11 (Base 50)    
Moisture  
Dew Point 49 °F    
Average Humidity 71    
Maximum Humidity 88    
Minimum Humidity 49    
Precipitation  
Precipitation 0.00 in - - ()
Sea Level Pressure  
Sea Level Pressure 30.10 in    
Wind  
Wind Speed 4 mph (North)    
Max Wind Speed 8 mph    
Max Gust Speed -    
Visibility 10 miles    
Events Rain    
Averages and records for this station are not official NWS values.
T = Trace of Precipitation, MM = Missing Value Source: NWS Daily Summary

Daily Weather History Graph

Daily Weather History Graph

Search for Another Location

Airport or City:

Astronomy

Jun. 02, 2013 Rise Set
Actual Time 5:17 AM PDT 8:59 PM PDT
Civil Twilight 4:38 AM PDT 9:38 PM PDT
Nautical Twilight 3:46 AM PDT 10:30 PM PDT
Astronomical Twilight 2:33 AM PDT 11:44 PM PDT
Moon 2:08 AM PDT (6/2) 3:16 PM PDT (6/2)
Length of Visible Light 16h 59m
Length of Day
15h 41m
Waning Crescent, 30% of the Moon is Illuminated
Jun 2
Waning Crescent
Jun 8
New
Jun 16
First Quarter
Jun 23
Full
Jun 29
Last Quarter

Hourly Weather History & Observations

Time (PDT) Temp. Dew Point Humidity Pressure Visibility Wind Dir Wind Speed Gust Speed Precip Events Conditions
12:58 AM 57.4 °F 46.4 °F 67% 30.09 in 10.0 mi North 4.6 mph - N/A   Overcast
1:58 AM 57.0 °F 46.2 °F 67% 30.08 in 10.0 mi NNE 5.8 mph - N/A   Overcast
2:58 AM 56.1 °F 46.2 °F 69% 30.08 in 10.0 mi NNE 1.2 mph - N/A   Overcast
3:58 AM 56.1 °F 46.6 °F 70% 30.08 in 10.0 mi NE 4.6 mph - N/A   Overcast
4:58 AM 55.2 °F 47.3 °F 75% 30.08 in 10.0 mi NNE 4.6 mph - N/A   Overcast
5:58 AM 54.5 °F 47.8 °F 78% 30.10 in 10.0 mi North 4.6 mph - N/A   Overcast
6:37 AM 53.6 °F 48.2 °F 82% 30.10 in 10.0 mi NNE 3.5 mph - N/A Rain Light Rain
6:50 AM 53.6 °F 48.2 °F 82% 30.10 in 10.0 mi NNE 3.5 mph - N/A   Overcast
6:58 AM 54.5 °F 49.1 °F 82% 30.11 in 10.0 mi NE 4.6 mph - 0.00 in   Mostly Cloudy
7:21 AM 55.4 °F 50.0 °F 82% 30.10 in 10.0 mi Variable 2.3 mph - N/A Rain Light Rain
7:35 AM 55.4 °F 50.0 °F 82% 30.10 in 10.0 mi NNE 2.3 mph - N/A   Mostly Cloudy
7:58 AM 55.6 °F 50.2 °F 82% 30.11 in 10.0 mi NNE 5.8 mph - 0.00 in   Overcast
8:32 AM 55.4 °F 50.0 °F 82% 30.11 in 10.0 mi ENE 3.5 mph - N/A Rain Light Rain
8:58 AM 55.2 °F 50.9 °F 85% 30.11 in 10.0 mi Variable 3.5 mph - 0.00 in Rain Light Rain
8:59 AM 55.4 °F 50.0 °F 82% 30.10 in 10.0 mi Variable 3.5 mph - N/A   Overcast
9:07 AM 55.4 °F 50.0 °F 82% 30.10 in 10.0 mi NE 2.3 mph - N/A   Light Drizzle
9:17 AM 55.4 °F 50.0 °F 82% 30.10 in 10.0 mi Variable 4.6 mph - N/A   Overcast
9:33 AM 55.4 °F 50.0 °F 82% 30.11 in 10.0 mi NE 5.8 mph - N/A Rain Light Rain
9:58 AM 55.0 °F 50.0 °F 83% 30.12 in 10.0 mi NNE 3.5 mph - 0.00 in Rain Light Rain
10:16 AM 55.4 °F 51.8 °F 88% 30.11 in 10.0 mi NNE 4.6 mph - N/A   Overcast
10:58 AM 58.6 °F 49.8 °F 72% 30.12 in 10.0 mi North 6.9 mph - 0.00 in   Overcast
11:58 AM 61.3 °F 48.7 °F 63% 30.12 in 10.0 mi NNE 8.1 mph - N/A   Overcast
12:58 PM 63.3 °F 47.7 °F 57% 30.11 in 10.0 mi North 5.8 mph - N/A   Mostly Cloudy
1:58 PM 64.8 °F 51.1 °F 61% 30.11 in 10.0 mi North 8.1 mph - N/A   Mostly Cloudy
2:58 PM 66.4 °F 50.2 °F 56% 30.10 in 10.0 mi Variable 4.6 mph - N/A   Scattered Clouds
3:58 PM 67.6 °F 49.6 °F 52% 30.10 in 10.0 mi Variable 3.5 mph - N/A   Clear
4:58 PM 69.3 °F 49.1 °F 49% 30.09 in 10.0 mi Variable 3.5 mph - N/A   Partly Cloudy
5:58 PM 68.4 °F 48.4 °F 49% 30.08 in 10.0 mi WNW 8.1 mph - N/A   Overcast
6:58 PM 66.0 °F 47.7 °F 52% 30.08 in 10.0 mi WNW 4.6 mph - N/A   Overcast
7:58 PM 65.3 °F 46.9 °F 51% 30.07 in 10.0 mi NW 1.2 mph - N/A   Overcast
8:58 PM 65.1 °F 50.0 °F 58% 30.08 in 10.0 mi Calm Calm - N/A   Overcast
9:58 PM 62.1 °F 51.3 °F 68% 30.10 in 10.0 mi West 5.8 mph - N/A   Scattered Clouds
10:58 PM 58.5 °F 48.4 °F 69% 30.11 in 10.0 mi WNW 2.3 mph - N/A   Clear
11:58 PM 56.8 °F 46.9 °F 69% 30.10 in 10.0 mi WNW 2.3 mph - N/A   Clear